Location: Agadir Irigdalene
(31.2522°N, 8.7797°W)
Time: 16:06:43
(UTC+00:00)

NOAA 6 - Pass Details

Date: 01 December 2020
Orbit: 773 x 786 km, 98.7° (Epoch: 26 January)

Event Time Altitude Azimuth Distance (km) Brightness Sun altitude
Rises 17:54:23 0° 171° (S) 3,254 7.4 -5.2°
Reaches altitude 10° 17:56:42 10° 173° (S) 2,327 6.7 -5.6°
Maximum altitude 18:01:49 73° 258° (WSW) 816 4.4 -6.7°
Drops below altitude 10° 18:06:57 10° 343° (NNW) 2,331 6.5 -7.7°
Sets 18:09:17 0° 345° (NNW) 3,260 7.2 -8.1°
